Location: Boquerón
(10.0687°N, 67.9212°W)
Time: 10:25:13
(UTC+00:00)

USA 290 - Pass Details

Date: 29 May 2024
Orbit: 403 x 414 km, 73.6° (Epoch: 12 May)

Event Time Altitude Azimuth Distance (km) Brightness Sun altitude
Rises 23:41:05 0° 0° (N) 2,309 6.4 -12.5°
Reaches altitude 10° 23:43:15 10° 11° (NNE) 1,451 5.2 -13.0°
Maximum altitude 23:46:07 31° 76° (ENE) 736 3.1 -13.6°
Enters shadow 23:46:55 27° 106° (ESE) 816 3.1 -13.8°
